Hourly Data Report for December 15, 2002

TORONTO CITY
ONTARIO

43°40'00.000" N
79°24'00.000" W
112.50 m
6158355
71508
XTO

Download Data

Hourly Data (December 2002)
Hourly Data Report for December 15, 2002
TIME
LST
Temp Definition
°C
Dew Point Definition
°C
Rel Hum Definition
%
Precip. Amount Definition
mm

Wind Dir Definition
10's deg

Wind Spd Definition
km/h
Visibility Definition
km
Stn Press Definition
kPa
Hmdx Definition


Wind Chill Definition


Weather Definition


00:00 3.3 -1.7 70   LegendMM LegendMM LegendMM 99.42     LegendNANA
01:00 3.3 -1.2 72   LegendMM LegendMM LegendMM 99.42     LegendNANA
02:00 3.2 -1.1 73   LegendMM LegendMM LegendMM 99.41     LegendNANA
03:00 2.8 -1.1 75   LegendMM LegendMM LegendMM 99.43     LegendNANA
04:00 2.0 -1.9 75   LegendMM LegendMM LegendMM 99.39     LegendNANA
05:00 1.9 -1.6 78   LegendMM LegendMM LegendMM 99.36     LegendNANA
06:00 2.0 -1.3 79   LegendMM LegendMM LegendMM 99.33     LegendNANA
07:00 2.0 -1.3 79   LegendMM LegendMM LegendMM 99.29     LegendNANA
08:00 2.0 -1.2 79   LegendMM LegendMM LegendMM 99.28     LegendNANA
09:00 2.3 -0.5 82   LegendMM LegendMM LegendMM 99.28     LegendNANA
10:00 2.5 -0.2 82   LegendMM LegendMM LegendMM 99.26     LegendNANA
11:00 2.5 0.2 85   LegendMM LegendMM LegendMM 99.20     LegendNANA
12:00 2.5 -0.2 82   LegendMM LegendMM LegendMM 99.11     LegendNANA
13:00 2.6 -0.2 82   LegendMM LegendMM LegendMM 99.03     LegendNANA
14:00 2.5 -0.2 82   LegendMM LegendMM LegendMM 98.97     LegendNANA
15:00 1.9 0.3 89   LegendMM LegendMM LegendMM 98.95     LegendNANA
16:00 1.7 0.7 93   LegendMM LegendMM LegendMM 98.94     LegendNANA
17:00 1.7 0.6 92   LegendMM LegendMM LegendMM 98.95     LegendNANA
18:00 1.6 0.6 93   LegendMM LegendMM LegendMM 98.94     LegendNANA
19:00 1.5 0.7 94   LegendMM LegendMM LegendMM 98.94     LegendNANA
20:00 1.4 0.7 95   LegendMM LegendMM LegendMM 98.91     LegendNANA
21:00 1.3 0.6 95   LegendMM LegendMM LegendMM 98.88     LegendNANA
22:00 1.1 0.5 96   LegendMM LegendMM LegendMM 98.87     LegendNANA
23:00 0.9 0.2 95   LegendMM LegendMM LegendMM 98.89     LegendNANA

Notes on Data Quality.

Legend

  • E = Estimated
  • M = Missing
  • NA = Not Available*
  • [empty] = Indicates an unobserved value
Date modified: